Temp
71 75 73 72 60 56 55 58 62 62 61 64 68 67 63 61 60 53 71 74 74 72 74 74 74 75 75 75 75 75 76 76 75 75 76 77 77 76 76 76 75 75 76 76 76 75 74 73 73
70 78 73 65 54 47 52 60 60 62 65 67 69 67 63 58 65 65 68 76 75 73 74 73 73 74 75 74 75 75 75 76 76 76 76 76 76 75 76 76 75 75 76 76 75 75 73 73 72
78 78 65 58 53 49 52 58 61 65 68 66 63 67 64 61 64 66 72 77 75 74 74 72 72 74 74 74 75 75 75 76 76 76 76 76 76 76 75 75 75 75 75 75 75 74 72 72 71
75 70 66 56 52 58 59 61 64 64 67 69 66 61 64 69 68 71 74 78 74 72 72 71 73 74 74 74 75 75 75 76 76 76 76 76 75 75 75 75 75 75 74 75 74 72 72 71 71
70 64 55 52 55 60 61 66 66 63 65 66 66 61 60 67 71 73 73 73 70 71 71 72 72 73 74 74 74 75 75 75 75 76 76 76 76 75 75 74 74 74 75 73 72 72 71 70 70
63 61 51 48 60 65 62 65 66 65 66 67 64 63 60 69 69 70 72 72 72 70 72 71 69 70 72 73 73 74 74 74 74 74 74 74 75 74 75 75 74 74 73 72 72 71 70 70 70
59 55 50 50 56 63 62 67 62 64 65 65 72 61 60 64 68 70 70 75 74 73 71 69 69 69 68 69 70 71 72 72 73 73 74 72 73 73 73 73 74 73 73 72 71 70 70 69 69
62 58 52 51 54 56 64 65 65 66 61 69 68 61 56 64 69 70 70 73 72 71 71 68 68 68 68 68 66 68 69 70 70 70 69 68 69 71 72 71 72 72 72 71 70 70 69 69 68
66 52 49 54 57 57 64 62 67 67 64 65 67 64 66 69 68 66 65 70 72 72 69 68 67 67 67 67 66 65 66 67 66 66 64 64 64 66 67 66 71 71 70 70 69 69 69 67 66
58 50 55 61 61 58 63 63 64 61 61 60 61 63 66 66 64 63 63 64 68 69 67 68 68 68 68 70 65 65 66 64 64 63 63 64 63 63 66 63 66 67 67 68 69 68 66 64 61
58 53 61 62 63 65 63 63 65 61 58 64 63 61 62 62 62 62 62 63 65 69 67 69 69 68 68 68 67 64 63 62 62 62 62 63 64 61 61 60 60 60 61 61 63 62 61 61 62
54 62 63 65 64 64 61 64 62 61 64 67 65 67 63 61 62 61 62 63 65 66 68 68 69 68 68 68 68 65 64 63 62 62 63 61 60 59 59 59 59 59 59 59 59 58 60 61 62
56 60 64 65 63 62 64 60 59 62 67 67 68 67 63 62 62 63 64 64 65 65 68 68 68 67 68 67 67 67 66 66 65 64 64 62 60 59 59 59 58 58 59 58 58 59 60 61 63
59 61 62 63 64 62 60 60 59 62 66 63 67 64 63 62 63 63 63 64 65 66 66 69 68 68 69 68 67 68 68 66 66 66 65 64 62 61 60 59 60 59 59 60 60 60 60 61 63
61 54 56 58 60 60 61 55 56 64 65 65 64 64 65 65 64 64 66 66 68 68 67 68 69 68 67 68 67 68 68 67 64 65 65 65 63 62 62 60 59 60 60 60 60 60 60 60 64
52 53 45 56 60 61 59 49 58 64 61 62 63 61 64 67 66 67 68 69 70 69 69 67 72 69 67 67 68 69 69 69 67 65 66 65 65 63 60 61 60 60 60 60 59 59 59 59 60
48 40 44 49 60 58 55 51 58 64 61 60 60 63 63 64 66 67 70 70 70 70 70 69 69 68 68 66 67 67 68 68 68 68 66 65 66 65 61 60 60 61 59 59 60 59 58 58 59
42 41 44 43 52 55 55 53 56 61 61 58 59 60 62 63 66 68 69 71 72 71 71 71 69 68 68 68 64 64 65 66 68 67 66 65 66 65 64 61 61 60 59 58 58 58 58 58 59
45 42 39 43 51 50 47 47 52 58 58 57 58 59 62 64 68 68 71 70 71 70 69 70 69 68 68 66 66 65 65 66 66 68 67 67 66 65 65 64 61 60 60 61 60 59 58 57 58
45 42 42 45 52 48 46 47 52 55 56 57 58 57 59 61 65 68 67 66 69 70 70 70 70 70 68 68 68 68 67 67 69 67 68 69 67 66 66 64 63 62 61 59 60 60 57 58 57
42 43 42 42 46 47 45 43 48 54 56 61 63 64 64 62 64 65 67 66 68 69 69 69 70 71 69 69 68 67 64 62 62 64 66 67 68 66 65 65 64 62 62 61 60 60 60 58 55
40 47 46 44 41 35 45 33 43 48 52 56 60 62 65 67 67 68 66 64 63 68 71 71 71 69 70 70 67 65 65 63 66 67 67 67 66 66 65 65 64 63 63 62 61 61 61 58 56
43 47 45 43 41 39 38 33 38 46 45 52 56 58 61 65 67 66 64 66 65 66 64 69 70 69 71 69 69 66 65 66 67 67 65 65 66 66 65 65 64 63 63 63 62 61 60 60 60
51 46 45 44 40 32 39 37 39 43 49 50 56 57 58 58 59 62 61 61 61 61 60 62 63 67 70 69 68 68 65 65 65 64 63 64 65 65 66 65 64 64 64 63 63 62 61 61 61
46 41 32 30 31 29 40 36 43 49 52 54 56 54 55 56 57 59 59 58 59 59 59 61 60 62 64 67 69 68 68 67 65 64 63 64 64 64 64 65 64 64 64 64 64 62 62 60 60
43 41 33 26 27 28 36 32 40 53 56 56 57 56 55 55 57 57 59 58 58 59 59 58 59 60 61 62 65 68 68 68 67 67 66 65 65 66 66 65 65 64 64 64 63 62 62 62 60
43 38 44 33 23 26 32 40 49 54 51 52 53 52 52 54 55 55 57 58 59 58 59 58 57 58 59 60 62 63 66 67 68 68 67 67 66 66 66 65 64 65 63 63 63 62 62 61 60
47 49 35 35 26 22 29 33 39 46 48 50 51 51 53 52 54 55 57 57 58 57 57 57 58 57 57 58 59 62 63 65 67 68 66 66 67 66 65 64 63 64 63 63 62 62 63 61 61
40 40 41 41 34 28 25 32 46 50 51 50 52 54 55 54 53 55 57 57 57 57 56 56 56 56 56 56 57 57 58 60 63 66 66 66 66 66 64 63 63 63 62 62 61 62 62 61 60
41 40 40 35 30 31 32 33 50 51 52 51 52 53 53 53 54 57 57 56 57 56 56 56 56 55 56 56 56 56 57 58 58 61 65 66 65 64 65 66 64 63 63 62 61 60 61 61 59
MSLP
1014.08 1013.31 1013.14 1013.25 1014.72 1015.29 1015.34 1015.27 1014.85 1015.03 1015.10 1015.16 1015.14 1015.56 1016.68 1017.42 1018.05 1018.85 1018.42 1018.66 1019.14 1019.69 1020.26 1020.38 1020.45 1020.72 1020.97 1021.09 1021.18 1021.25 1021.33 1021.59 1021.81 1022.05 1022.14 1021.97 1022.03 1022.20 1022.30 1022.43 1022.53 1022.65 1022.60 1022.68 1022.82 1022.98 1023.14 1023.26 1023.20
1014.11 1013.49 1013.47 1014.27 1015.35 1015.97 1015.90 1015.49 1015.57 1015.35 1015.38 1015.25 1015.32 1015.87 1016.74 1018.01 1018.18 1018.47 1018.44 1018.84 1019.00 1019.54 1020.06 1020.53 1020.61 1020.71 1021.03 1021.23 1021.27 1021.41 1021.48 1021.69 1021.88 1022.06 1022.21 1022.21 1022.29 1022.48 1022.46 1022.62 1022.69 1022.84 1022.82 1022.98 1023.08 1023.25 1023.39 1023.50 1023.49
1013.89 1013.82 1014.86 1015.23 1015.79 1015.92 1015.77 1015.83 1015.71 1015.59 1015.42 1015.61 1015.95 1016.11 1016.91 1018.08 1018.41 1018.28 1018.09 1018.36 1018.95 1019.53 1019.95 1020.52 1020.82 1020.81 1021.04 1021.29 1021.45 1021.53 1021.62 1021.62 1021.86 1022.08 1022.28 1022.41 1022.45 1022.65 1022.78 1022.89 1022.98 1023.09 1023.11 1023.20 1023.39 1023.45 1023.61 1023.64 1023.66
1014.41 1014.50 1015.19 1015.59 1015.84 1015.54 1015.33 1015.56 1015.31 1015.64 1015.62 1015.66 1016.15 1017.06 1017.49 1017.58 1017.98 1018.02 1018.00 1018.06 1018.95 1019.64 1020.03 1020.40 1020.79 1020.96 1021.09 1021.34 1021.46 1021.70 1021.80 1021.86 1022.04 1022.29 1022.37 1022.53 1022.62 1022.69 1022.93 1023.07 1023.18 1023.29 1023.38 1023.41 1023.60 1023.84 1023.86 1023.84 1023.75
1014.92 1015.57 1016.13 1016.11 1015.64 1015.34 1014.89 1014.92 1014.83 1015.35 1015.58 1015.82 1016.13 1017.21 1018.01 1018.14 1017.72 1017.90 1018.18 1018.47 1019.16 1019.75 1020.14 1020.44 1020.79 1021.10 1021.16 1021.41 1021.61 1021.80 1021.93 1022.09 1022.28 1022.37 1022.57 1022.80 1022.80 1022.86 1023.02 1023.22 1023.32 1023.47 1023.51 1023.79 1023.99 1024.07 1024.06 1024.03 1023.93
1015.94 1016.29 1016.78 1016.68 1015.82 1015.01 1014.61 1014.40 1014.74 1015.06 1015.36 1015.63 1016.13 1017.18 1018.16 1018.28 1018.25 1018.19 1018.39 1018.71 1019.10 1019.66 1020.09 1020.49 1020.82 1021.08 1021.38 1021.42 1021.62 1021.87 1022.04 1022.17 1022.41 1022.57 1022.79 1022.99 1023.02 1023.12 1023.16 1023.32 1023.35 1023.54 1023.77 1023.95 1024.15 1024.23 1024.22 1024.17 1024.10
1016.54 1017.16 1017.27 1016.69 1015.93 1015.06 1014.72 1014.31 1014.60 1015.02 1015.14 1015.32 1015.48 1017.13 1018.43 1018.60 1018.53 1018.37 1018.54 1018.33 1018.73 1019.41 1020.02 1020.51 1020.86 1021.07 1021.36 1021.60 1021.69 1021.86 1022.11 1022.26 1022.44 1022.62 1022.79 1023.11 1023.17 1023.15 1023.28 1023.52 1023.50 1023.64 1023.87 1024.07 1024.21 1024.29 1024.31 1024.30 1024.20
1016.60 1017.34 1017.29 1016.59 1016.00 1015.37 1014.68 1014.51 1014.59 1015.02 1015.44 1015.15 1015.47 1016.85 1018.05 1018.21 1018.44 1018.63 1018.79 1018.59 1018.87 1019.38 1019.85 1020.49 1020.74 1021.10 1021.37 1021.65 1021.82 1021.91 1022.07 1022.30 1022.48 1022.57 1022.74 1023.01 1023.22 1023.29 1023.40 1023.51 1023.63 1023.81 1024.00 1024.19 1024.29 1024.37 1024.44 1024.45 1024.32
1016.49 1017.54 1017.44 1016.69 1015.87 1015.33 1014.77 1014.75 1014.78 1015.03 1015.49 1015.69 1016.07 1016.65 1016.79 1017.67 1018.57 1018.98 1019.19 1018.97 1018.91 1019.46 1019.83 1020.24 1020.65 1020.92 1021.17 1021.47 1021.81 1021.93 1022.06 1022.24 1022.47 1022.65 1022.81 1023.03 1023.29 1023.41 1023.47 1023.59 1023.69 1023.89 1024.15 1024.30 1024.41 1024.44 1024.48 1024.57 1024.52
1017.05 1017.65 1017.02 1016.53 1016.05 1015.73 1015.23 1014.97 1015.17 1015.33 1015.65 1016.21 1016.93 1017.40 1017.61 1017.96 1018.64 1019.19 1019.20 1019.15 1019.01 1019.07 1019.61 1019.90 1020.27 1020.60 1020.96 1021.19 1021.59 1021.87 1022.08 1022.24 1022.42 1022.59 1022.73 1022.84 1023.08 1023.28 1023.43 1023.54 1023.66 1023.89 1024.09 1024.22 1024.32 1024.39 1024.46 1024.60 1024.70
1016.97 1017.24 1016.70 1016.38 1016.04 1015.89 1015.78 1015.49 1015.33 1015.54 1015.84 1016.13 1016.65 1017.49 1017.94 1018.13 1018.63 1019.01 1019.14 1019.01 1019.03 1018.97 1019.09 1019.38 1019.77 1020.12 1020.48 1020.86 1021.39 1021.73 1022.00 1022.17 1022.41 1022.52 1022.64 1022.71 1022.89 1023.12 1023.37 1023.60 1023.67 1023.82 1023.96 1024.22 1024.25 1024.31 1024.44 1024.64 1024.67
1017.00 1016.75 1016.55 1016.30 1016.04 1015.96 1016.07 1015.98 1015.79 1015.74 1015.75 1015.66 1015.87 1016.69 1017.73 1018.18 1018.37 1018.58 1018.80 1018.85 1018.74 1018.88 1018.92 1018.93 1019.05 1019.53 1019.92 1020.21 1020.60 1021.17 1021.61 1021.95 1022.17 1022.35 1022.39 1022.66 1022.90 1023.08 1023.19 1023.39 1023.57 1023.73 1023.84 1024.07 1024.15 1024.21 1024.16 1024.33 1024.41
1017.09 1016.90 1016.39 1016.19 1016.18 1016.03 1016.17 1016.29 1016.34 1016.17 1015.59 1015.56 1015.72 1016.62 1017.38 1017.92 1018.11 1018.26 1018.42 1018.58 1018.63 1018.56 1018.58 1018.59 1018.76 1019.09 1019.40 1019.68 1019.96 1020.37 1020.85 1021.22 1021.48 1021.81 1021.97 1022.15 1022.54 1022.75 1022.87 1023.16 1023.33 1023.47 1023.60 1023.69 1023.81 1023.94 1023.99 1024.04 1023.94
1017.11 1016.93 1016.59 1016.47 1016.46 1016.24 1016.37 1016.41 1016.47 1016.02 1015.48 1015.70 1016.10 1016.46 1016.93 1017.44 1017.58 1017.92 1018.09 1018.09 1018.22 1018.16 1018.18 1018.14 1018.34 1018.59 1018.96 1019.38 1019.61 1019.67 1020.12 1020.51 1020.65 1021.05 1021.29 1021.48 1021.77 1022.00 1022.21 1022.53 1022.78 1022.97 1023.09 1023.22 1023.45 1023.58 1023.63 1023.66 1023.60
1017.21 1017.22 1017.12 1016.84 1016.77 1016.58 1016.56 1016.66 1016.38 1015.92 1015.75 1015.83 1015.88 1016.15 1016.32 1016.59 1016.99 1016.94 1016.93 1017.19 1017.34 1017.47 1017.65 1017.78 1018.00 1018.17 1018.60 1018.90 1019.21 1019.28 1019.52 1019.95 1020.32 1020.50 1020.72 1020.94 1021.22 1021.48 1021.65 1021.87 1022.18 1022.34 1022.52 1022.74 1023.03 1023.23 1023.34 1023.43 1023.18
1017.93 1017.81 1017.72 1017.08 1017.01 1016.79 1017.06 1016.17 1016.15 1015.96 1015.93 1015.83 1015.64 1015.82 1015.75 1015.65 1015.81 1015.94 1016.06 1016.21 1016.62 1016.97 1017.15 1017.45 1017.51 1017.78 1018.03 1018.35 1018.68 1018.85 1018.99 1019.15 1019.53 1019.89 1020.13 1020.37 1020.70 1021.06 1021.40 1021.56 1021.66 1021.72 1022.02 1022.32 1022.65 1022.90 1023.19 1023.23 1023.06
1018.77 1018.60 1018.37 1018.09 1017.72 1017.49 1017.33 1016.30 1015.90 1015.60 1015.60 1015.77 1015.42 1015.32 1015.14 1014.91 1014.89 1014.96 1014.99 1015.04 1015.30 1015.82 1016.27 1016.65 1016.94 1017.11 1017.44 1017.75 1018.07 1018.38 1018.52 1018.72 1018.95 1019.18 1019.43 1019.69 1020.01 1020.40 1020.86 1021.10 1021.22 1021.35 1021.63 1021.89 1022.07 1022.41 1022.67 1022.88 1022.81
1019.35 1019.44 1019.12 1019.01 1018.72 1018.19 1017.46 1016.59 1016.16 1015.58 1015.38 1015.35 1015.16 1014.91 1014.81 1014.67 1014.18 1014.01 1014.14 1014.14 1014.28 1014.63 1015.31 1015.78 1016.33 1016.61 1016.85 1017.17 1017.60 1018.00 1018.21 1018.32 1018.41 1018.59 1018.83 1019.11 1019.28 1019.61 1020.05 1020.39 1020.58 1020.80 1021.21 1021.45 1021.66 1021.87 1022.13 1022.37 1022.41
1019.70 1019.92 1019.99 1019.84 1019.86 1019.43 1018.60 1018.05 1017.08 1016.12 1015.50 1015.30 1015.08 1014.56 1014.08 1013.77 1013.12 1013.12 1013.06 1013.32 1013.67 1014.00 1014.53 1014.87 1015.33 1015.70 1016.31 1016.80 1017.08 1017.39 1017.42 1017.67 1017.79 1017.75 1018.01 1018.33 1018.73 1019.06 1019.34 1019.61 1020.00 1020.31 1020.58 1020.75 1021.00 1021.26 1021.50 1021.82 1021.90
1020.27 1020.23 1020.23 1020.37 1020.32 1020.23 1019.49 1018.21 1017.24 1016.24 1015.35 1014.90 1014.64 1014.04 1013.79 1013.47 1012.84 1012.52 1012.65 1012.89 1012.93 1012.89 1013.10 1013.74 1014.32 1014.67 1014.91 1015.49 1015.84 1016.34 1016.80 1016.93 1016.85 1017.17 1017.12 1017.39 1017.88 1018.28 1018.70 1019.01 1019.33 1019.64 1020.07 1020.26 1020.46 1020.67 1021.03 1021.13 1021.40
1019.83 1020.04 1020.57 1020.89 1020.82 1020.59 1020.44 1018.55 1017.17 1015.34 1014.38 1014.05 1013.36 1013.08 1012.80 1012.84 1012.64 1012.16 1011.89 1011.80 1012.03 1012.19 1012.31 1012.59 1013.00 1013.61 1014.20 1014.56 1015.27 1015.85 1016.33 1016.61 1016.83 1016.56 1016.49 1016.41 1016.78 1017.35 1017.79 1018.15 1018.53 1018.90 1019.20 1019.49 1019.70 1019.95 1020.20 1020.52 1020.85
1019.60 1019.72 1020.50 1020.94 1021.20 1021.23 1020.67 1019.04 1015.99 1015.03 1013.88 1013.31 1012.29 1011.96 1011.54 1011.51 1011.58 1011.24 1011.24 1011.48 1011.70 1011.69 1011.41 1011.63 1011.92 1012.49 1013.01 1013.77 1014.41 1014.73 1014.80 1015.13 1015.07 1015.42 1015.78 1015.93 1016.04 1016.24 1016.67 1017.09 1017.47 1017.90 1018.25 1018.60 1018.65 1018.97 1019.26 1019.79 1020.14
1018.37 1018.98 1019.90 1020.62 1020.99 1021.02 1020.72 1020.12 1014.86 1014.53 1013.71 1011.88 1011.26 1010.94 1010.74 1010.63 1010.67 1010.81 1010.93 1010.75 1010.75 1010.83 1011.10 1011.14 1011.25 1011.63 1012.07 1012.73 1013.17 1013.86 1013.99 1013.84 1014.05 1014.38 1014.77 1015.10 1015.21 1015.30 1015.68 1016.14 1016.67 1017.04 1017.26 1017.39 1017.70 1018.06 1018.35 1018.58 1019.01
1018.16 1019.04 1019.82 1020.43 1020.86 1020.30 1019.11 1019.32 1013.62 1013.59 1011.60 1010.93 1010.89 1010.71 1010.89 1011.09 1011.12 1011.31 1011.37 1011.21 1011.00 1010.87 1011.05 1011.31 1011.35 1011.23 1011.39 1011.83 1012.15 1012.35 1012.65 1012.99 1013.35 1013.52 1013.71 1013.93 1014.41 1014.62 1014.70 1015.08 1015.44 1015.73 1016.19 1016.48 1016.65 1016.96 1017.36 1017.63 1017.91
1017.65 1018.40 1019.28 1019.82 1019.66 1018.82 1017.81 1018.41 1013.36 1012.48 1011.15 1010.95 1011.25 1011.34 1011.48 1011.42 1011.34 1011.43 1011.69 1011.61 1011.34 1011.52 1011.43 1011.33 1011.45 1011.47 1011.33 1011.26 1011.42 1011.67 1011.78 1012.24 1012.43 1012.60 1012.86 1013.19 1013.39 1013.60 1013.67 1014.15 1014.49 1014.78 1014.95 1015.24 1015.69 1016.14 1016.39 1016.62 1016.80
1016.40 1017.42 1017.40 1018.30 1018.90 1018.29 1017.89 1016.77 1013.06 1011.65 1010.61 1010.68 1010.54 1011.21 1011.60 1011.78 1011.64 1011.93 1011.95 1011.86 1011.63 1011.66 1011.50 1011.62 1011.57 1011.24 1011.06 1011.16 1010.96 1010.88 1011.07 1011.29 1011.50 1011.70 1011.92 1012.26 1012.35 1012.38 1012.73 1013.11 1013.38 1013.51 1013.88 1014.34 1014.79 1015.17 1015.38 1015.68 1015.86
1015.81 1016.45 1016.80 1017.73 1018.99 1018.70 1017.09 1014.86 1012.81 1011.23 1011.44 1011.09 1011.21 1011.75 1012.33 1012.64 1012.61 1012.59 1012.36 1012.06 1011.96 1012.06 1011.92 1011.85 1011.74 1011.45 1011.09 1010.88 1010.60 1010.46 1010.45 1010.53 1010.65 1010.81 1011.07 1011.30 1011.40 1011.45 1011.75 1011.97 1012.32 1012.60 1012.96 1013.32 1013.76 1014.09 1014.21 1014.48 1014.59
1014.87 1015.58 1017.01 1017.81 1018.38 1018.16 1016.28 1014.50 1012.50 1011.48 1011.36 1011.47 1011.65 1012.06 1012.56 1012.99 1012.99 1013.18 1012.89 1012.41 1012.37 1012.18 1012.04 1011.84 1011.74 1011.44 1011.12 1010.85 1010.53 1010.20 1009.96 1009.82 1009.76 1009.86 1010.02 1010.16 1010.31 1010.54 1010.73 1010.94 1011.17 1011.51 1011.85 1012.21 1012.67 1012.89 1013.05 1013.34 1013.35
1015.31 1015.30 1015.92 1016.48 1017.33 1016.86 1016.02 1013.92 1011.84 1011.23 1011.51 1011.38 1011.47 1011.87 1012.02 1012.61 1013.06 1013.27 1012.93 1012.63 1012.20 1011.95 1011.89 1011.91 1011.73 1011.44 1011.02 1010.71 1010.42 1010.14 1009.72 1009.44 1009.22 1009.04 1008.95 1008.94 1009.11 1009.38 1009.58 1009.75 1010.01 1010.29 1010.59 1010.94 1011.39 1011.55 1011.75 1012.01 1012.14
1016.24 1015.45 1015.70 1015.17 1016.24 1016.30 1014.90 1014.10 1012.05 1011.51 1011.45 1011.42 1012.07 1012.29 1012.52 1012.83 1013.09 1013.14 1012.94 1012.75 1012.34 1011.91 1011.68 1011.82 1011.72 1011.54 1010.96 1010.51 1010.22 1009.88 1009.48 1009.16 1009.04 1008.71 1008.32 1008.21 1008.19 1008.42 1008.47 1008.60 1008.72 1008.89 1009.00 1009.27 1009.66 1010.03 1010.28 1010.53 1010.78
Wind_Speed
10 11 3 5 6 6 2 3 3 4 4 1 2 6 8 3 3 3 1 14 15 12 7 9 14 15 15 14 13 13 14 14 14 11 11 10 15 13 12 17 14 14 14 14 14 14 13 13 12
7 7 5 2 5 4 3 4 7 3 3 4 6 4 3 3 3 5 5 14 15 13 9 7 12 15 14 12 12 13 13 14 14 12 12 7 14 12 16 16 14 14 13 14 14 13 12 11 10
7 3 4 3 1 1 2 3 6 3 5 1 3 5 3 3 1 6 4 16 13 12 11 10 11 14 14 12 11 12 10 12 16 12 14 8 12 12 13 14 14 12 12 12 12 12 11 10 8
5 6 5 4 4 3 5 7 8 4 4 5 3 5 4 2 9 7 7 12 13 12 11 12 12 13 14 13 12 12 10 10 12 13 13 11 9 12 14 14 12 11 12 11 12 10 10 9 8
4 3 3 2 5 2 3 8 7 6 5 3 2 4 3 3 8 8 6 12 13 11 10 11 12 12 13 12 11 12 10 12 11 11 11 11 8 8 11 11 13 11 10 11 10 9 9 8 8
5 3 4 3 5 3 3 3 5 5 5 5 3 6 3 6 7 7 6 12 12 12 11 9 11 11 10 12 12 12 11 11 12 11 12 11 10 7 11 9 8 13 10 10 9 8 7 7 7
3 3 4 3 5 1 2 3 1 4 6 4 5 5 3 4 7 6 6 10 12 11 11 8 7 9 10 9 11 11 12 11 11 11 11 10 10 8 10 9 8 11 11 9 8 7 6 5 5
3 4 3 3 3 1 5 3 1 6 1 0 2 5 5 6 9 6 5 7 8 8 10 8 7 6 6 6 8 10 11 10 9 11 9 10 9 10 10 9 8 8 8 7 6 5 5 3 2
3 3 2 4 5 2 1 3 4 3 3 2 2 3 3 16 9 6 4 5 6 9 9 9 8 8 7 7 6 8 9 10 9 8 9 7 4 5 7 4 9 8 7 6 5 4 5 4 3
4 3 6 1 4 3 2 2 4 1 2 1 5 6 9 11 10 8 7 7 8 9 8 9 10 9 8 8 7 6 6 4 5 6 6 5 6 5 5 4 8 9 7 6 6 5 6 5 3
4 5 3 2 2 5 2 7 3 4 2 6 8 12 10 7 8 8 7 7 7 10 6 8 11 9 10 8 6 4 3 3 4 6 6 5 5 4 3 3 3 4 6 3 4 4 3 4 4
2 6 4 4 2 3 3 4 7 2 6 3 2 15 11 10 12 10 9 8 7 7 10 9 9 10 10 8 8 7 6 5 4 5 7 4 3 4 5 4 4 4 3 5 4 3 4 5 6
4 5 5 4 3 3 1 4 3 8 11 5 6 12 11 11 11 8 8 7 7 8 10 10 8 8 10 10 7 8 8 7 7 7 8 5 5 5 5 4 4 4 4 5 5 5 4 5 3
3 6 6 6 6 3 3 6 2 5 5 2 5 10 10 12 14 9 9 11 11 9 9 11 10 9 11 9 9 8 8 7 7 8 9 9 7 6 6 5 6 5 5 5 5 5 5 5 5
4 3 4 4 3 4 3 7 8 11 9 10 8 9 10 11 11 16 16 15 15 14 8 12 12 9 10 11 9 7 7 6 5 6 8 9 7 7 8 6 6 6 5 6 5 4 4 4 5
2 0 3 3 5 6 5 14 6 10 8 12 10 9 9 11 11 15 14 16 15 12 13 7 12 12 9 10 9 7 8 8 7 6 7 10 9 7 6 5 5 5 5 4 4 4 4 4 4
3 4 6 6 5 6 10 11 8 11 8 9 10 10 10 10 9 11 16 17 16 17 14 12 10 13 13 8 7 8 9 9 7 8 8 10 11 9 6 5 5 6 5 5 5 4 4 4 4
8 4 2 3 7 10 17 17 7 8 8 9 8 8 8 9 11 10 13 15 16 16 15 14 10 12 13 9 5 4 6 7 8 8 8 10 10 11 9 6 7 6 5 5 4 5 5 4 5
5 3 3 1 4 10 6 8 9 8 8 9 9 9 9 10 9 8 13 13 15 14 15 16 14 13 11 9 10 8 11 8 7 9 11 12 10 12 12 9 7 7 8 9 8 5 7 5 4
5 5 5 6 3 2 8 20 16 13 11 9 8 9 9 9 9 10 8 10 15 19 19 16 16 16 15 12 11 10 8 8 9 7 11 13 12 13 12 12 10 9 7 7 10 8 4 5 5
12 18 13 8 3 2 8 20 17 13 12 14 17 18 14 12 13 10 11 13 14 16 18 17 18 17 15 16 8 7 3 2 5 8 9 11 14 14 14 14 11 10 9 9 10 10 11 8 5
17 15 11 9 5 5 4 10 8 6 14 14 15 18 20 19 18 15 9 7 9 15 16 17 16 15 16 16 13 15 13 13 13 12 10 10 12 14 16 15 14 12 10 12 11 9 10 7 9
11 12 14 7 6 1 7 4 8 7 7 18 11 12 13 15 16 13 10 9 7 10 11 14 15 14 15 14 17 13 15 12 10 10 12 13 12 15 15 15 14 14 12 14 13 12 13 10 9
6 9 7 4 6 8 12 9 9 8 10 4 4 7 6 8 8 7 5 5 6 6 2 5 7 12 13 13 18 20 19 16 12 11 12 11 10 11 15 15 15 15 14 14 13 14 14 13 12
7 10 6 6 7 6 8 10 18 9 7 4 6 8 8 8 8 8 9 8 7 6 4 3 6 8 8 13 15 17 19 17 17 15 12 12 11 10 15 16 15 14 16 16 14 13 14 13 13
18 12 6 6 5 6 9 10 9 12 11 7 7 8 9 9 8 8 7 6 7 8 8 6 5 8 7 8 12 14 15 12 12 14 12 11 12 12 13 15 17 18 17 16 14 12 12 13 13
14 14 5 5 2 2 6 8 10 10 5 5 9 9 7 8 7 5 4 3 4 5 7 6 8 8 8 8 8 9 11 13 13 16 13 11 13 12 13 14 17 18 16 16 16 12 15 14 14
9 11 6 3 7 6 5 5 6 4 7 8 10 10 6 6 6 3 4 4 4 5 7 7 6 6 7 8 7 7 8 11 13 13 15 14 14 14 13 13 16 17 17 16 16 14 15 14 13
6 11 8 6 4 8 3 6 5 9 10 11 9 9 9 7 4 4 3 5 4 3 4 7 7 7 7 6 6 7 7 8 9 13 14 15 14 15 13 14 15 16 17 17 16 17 16 16 15
9 6 7 10 9 4 3 5 5 9 10 7 7 7 5 4 1 5 5 6 6 7 7 6 7 7 7 7 7 7 7 7 7 10 13 13 14 12 15 16 16 17 18 18 18 19 17 17 17
Wind_Direction
319 311 298 30 41 57 5 336 120 96 58 44 75 77 123 68 58 168 324 121 128 129 130 128 121 119 119 115 112 107 109 111 103 102 108 105 100 99 107 103 101 105 105 101 95 88 85 77 76
313 317 29 35 75 49 311 69 76 76 118 83 49 43 68 101 97 144 108 134 132 134 135 131 127 125 123 120 121 118 117 118 118 112 111 112 108 100 122 115 107 111 111 100 96 89 86 81 68
303 213 69 87 83 106 132 109 128 77 61 97 69 54 81 109 55 153 223 136 140 138 135 134 133 129 130 127 115 114 111 127 131 125 124 127 112 110 117 110 108 112 107 103 99 86 82 76 64
340 355 10 85 258 303 123 163 136 102 11 26 88 67 47 335 150 186 158 124 117 128 135 137 139 138 133 132 130 127 129 117 120 119 125 135 107 114 117 110 103 112 110 106 96 91 83 71 52
20 61 28 350 287 145 104 148 140 154 163 168 115 168 105 17 122 141 148 115 117 127 134 138 141 145 142 140 137 135 129 132 112 124 123 130 114 104 113 106 122 125 120 100 102 99 87 70 48
1 70 34 330 341 146 88 104 138 150 156 147 102 117 177 139 125 169 135 130 130 135 135 140 148 148 152 148 143 141 133 130 124 121 126 134 150 109 116 135 136 137 125 121 114 104 89 71 51
93 71 242 291 279 120 146 139 111 170 155 186 154 97 167 161 157 174 142 139 139 142 140 145 152 155 158 156 150 141 142 141 140 136 143 141 158 137 130 153 148 115 131 132 125 119 103 75 41
101 89 297 281 287 179 173 122 77 55 227 48 71 163 198 191 157 164 169 142 142 140 146 155 154 155 157 159 161 151 147 149 150 142 149 149 156 169 165 165 168 132 133 132 135 141 134 112 23
22 56 272 278 346 10 149 108 350 157 109 42 45 120 174 136 136 144 216 163 142 151 156 161 163 168 164 160 168 156 155 155 145 142 145 135 152 167 182 176 179 139 134 144 148 162 168 172 237
107 141 224 27 7 30 349 108 157 92 134 194 65 60 110 132 152 174 190 196 166 166 170 167 171 174 164 169 161 162 165 163 160 159 167 159 170 173 188 203 180 144 154 171 180 186 200 200 238
192 203 269 3 89 25 11 9 342 158 278 213 194 167 157 153 167 183 201 200 186 177 175 178 177 173 164 164 172 166 170 171 176 175 184 185 176 180 179 160 152 158 178 197 205 212 210 214 234
245 262 244 274 94 57 337 303 342 258 232 290 224 173 156 171 184 190 198 202 204 183 187 187 181 167 171 165 172 172 175 189 182 190 196 180 181 177 171 174 186 184 192 205 214 220 215 224 215
210 238 273 291 186 169 296 292 258 294 287 279 108 156 175 180 191 199 196 205 209 215 201 189 187 166 174 172 178 172 185 190 190 186 197 183 177 187 170 190 187 194 196 202 212 214 222 218 224
315 262 263 290 260 237 212 257 93 279 275 287 175 186 181 190 195 191 198 204 212 221 215 192 189 178 178 188 187 178 187 200 183 187 194 195 184 185 187 187 201 202 196 207 207 206 198 211 216
251 282 312 275 245 231 144 287 231 243 255 270 215 209 196 206 187 201 199 206 205 220 219 195 193 190 172 188 190 187 187 193 195 188 193 192 188 191 196 195 195 202 201 203 209 226 213 217 232
306 115 242 219 249 267 148 260 229 259 239 251 249 220 222 218 198 206 197 204 203 210 216 202 196 194 186 180 192 197 196 196 196 187 192 195 196 193 202 204 208 198 193 192 187 195 201 216 225
226 222 234 285 252 263 192 255 236 240 242 251 244 235 221 232 224 204 200 197 192 199 207 210 199 194 196 189 183 194 198 205 204 201 195 194 198 198 192 204 208 202 195 197 194 203 186 209 229
211 207 341 321 352 316 253 249 264 272 270 247 251 236 237 236 231 219 208 200 195 192 197 208 203 196 196 193 183 200 200 202 199 202 199 193 200 199 202 205 206 195 193 201 190 193 204 201 213
128 129 196 267 324 338 345 298 285 276 273 281 271 252 241 246 251 216 213 197 195 191 193 203 201 197 191 196 203 210 213 207 208 206 203 197 199 201 207 212 208 199 203 206 202 190 198 215 212
207 186 233 303 267 0 329 308 301 282 271 248 257 272 253 262 253 254 211 196 196 195 199 198 205 201 194 195 206 212 211 218 214 208 202 200 198 200 208 213 212 210 210 205 207 203 201 211 189
215 224 218 240 12 193 290 278 257 260 251 260 250 249 246 236 240 236 233 208 209 204 202 199 200 201 199 202 196 201 201 206 205 219 212 205 199 199 205 209 211 209 209 214 211 207 206 217 212
222 215 210 199 159 231 157 291 240 247 259 256 261 247 246 247 240 238 232 236 209 221 207 204 199 193 199 193 196 201 206 213 220 224 223 216 204 205 203 209 206 207 210 216 214 207 208 191 210
225 156 188 167 178 251 204 248 278 233 256 253 248 239 244 239 236 232 225 236 235 213 203 210 206 200 200 195 201 203 214 219 217 217 215 216 216 211 207 206 206 210 211 217 216 214 210 207 214
143 136 164 167 214 217 218 193 264 204 222 298 303 78 90 82 66 73 56 34 32 16 209 236 224 213 207 199 205 207 212 217 217 214 214 213 216 216 215 207 210 212 215 216 216 216 214 214 216
203 153 180 205 205 228 177 178 252 285 264 193 166 111 101 94 74 59 37 22 20 22 16 321 224 237 225 214 215 218 221 218 221 217 217 215 219 217 218 211 211 216 217 218 218 217 220 214 216
193 201 160 197 198 235 132 223 253 238 260 156 124 126 111 83 66 50 38 23 9 358 353 345 297 260 235 222 226 226 224 225 224 223 222 220 222 221 217 213 216 216 216 217 218 220 221 219 221
180 209 215 103 50 60 209 271 302 269 173 119 105 88 91 87 71 68 28 12 334 325 320 327 329 311 291 256 236 226 227 227 228 230 226 226 225 227 222 213 213 218 215 214 214 219 223 218 220
190 155 190 182 183 219 259 253 226 93 98 111 110 114 123 104 71 337 302 305 327 310 296 304 296 289 287 288 271 254 236 230 230 229 227 225 226 223 221 212 211 214 214 212 211 218 224 220 220
207 195 205 165 164 203 173 259 247 188 145 127 131 134 144 131 165 270 296 310 326 306 301 291 292 297 301 300 288 280 263 245 231 229 227 224 226 224 216 212 211 212 211 210 210 217 221 220 221
335 200 241 191 184 236 157 228 112 131 144 130 100 113 128 138 181 289 315 333 339 345 346 333 306 298 287 283 287 282 279 272 253 245 241 232 227 223 221 220 215 213 211 209 208 214 216 219 218